Location: Crayja
(6.2254°N, 10.6273°W)
Time: 13:21:47
(UTC+00:00)

ALOS - Pass Details

Date: 17 February 2020
Orbit: 683 x 685 km, 97.8° (Epoch: 05 April)

Event Time Altitude Azimuth Distance (km) Brightness Sun altitude
Rises 05:24:30 0° 15° (NNE) 3,032 5.7 -23.8°
Reaches altitude 10° 05:26:45 10° 17° (NNE) 2,118 4.9 -23.2°
Maximum altitude 05:31:22 71° 102° (ESE) 722 2.5 -22.1°
Drops below altitude 10° 05:35:59 10° 185° (S) 2,123 4.9 -20.9°
Sets 05:38:14 0° 187° (S) 3,039 5.7 -20.4°
